Location: Wingville
(42.9917°N, 90.4915°W)
Time: 10:39:53
(UTC+00:00)

CUBESAT XI-V - Pass Details

Date: 03 July 2022
Orbit: 668 x 690 km, 98.1° (Epoch: 14 August)

Event Time Altitude Azimuth Distance (km) Brightness Sun altitude
Exits shadow 09:04:56 14° 252° (WSW) 1,866 ? -12.3°
Maximum altitude 09:06:09 15° 269° (W) 1,796 ? -12.2°
Drops below altitude 10° 09:08:45 10° 304° (NW) 2,106 ? -11.8°
Sets 09:11:56 0° 328° (NNW) 3,023 ? -11.4°
